C/2018 EN4 ( NEOWISE )

Japanese version
Home page
Updated on October 22, 2018

---------------------------------------------------------------------

* Profile

Discovery Date March 9, 2018
Magnitude 20 mag
Discoverer Near-Earth Object Wide-field Infrared Survey Explorer

* Pictures

* Orbital Elements

Epoch 2018 June 11.0 TT = JDT 2458280.5
T 2018 June 7.77852 TT                                  MPCW
q   1.4479539            (2000.0)            P               Q
n   0.01245643     Peri.   35.01148     -0.64911059     +0.33062468
a  18.4306359      Node   136.16510     +0.23897469     -0.76637967
e   0.9214377      Incl.   81.56215     +0.72218179     +0.55077175
P  79.12
From 69 observations 2018 Mar. 9-Aug. 9, mean residual 0".5.

* Magnitudes Graph

        m1 = 12.5 + 5 log d + 22.0 log r(t - 25)

---------------------------------------------------------------------

The orbital elements are published on M.P.E.C. 2018-S50.
The magnitudes graphs are made with Comet for Windows.

---------------------------------------------------------------------

Copyright(C) Seiichi Yoshida (comet@aerith.net). All rights reserved.